User: anonymous   Login
Location: Unspecified
(0.0000°N, 0.0000°E)
Time: 00:25:45
(UTC+00:00)
Language:

NOSS 2-1 (E) - Orbit

View from above orbital plane
View from above orbital plane
View from above satellite
View from above satellite

Ground track
Ground track

The orbit data is extracted from the following two-line orbital elements,

1 20642U 90050E   17085.89567949 0.00000100  00000-0  26514-4 0    02
2 20642  63.3465  47.3581 0784000  27.3995 332.6005 13.41648826    07
Epoch (UTC): 26 March 2017 21:29:46
Eccentricity: 0.0784000
inclination: 63.3465°
perigee height: 516 km
apogee height: 1689 km
right ascension of ascending node: 47.3581°
argument of perigee: 27.3995°
revolutions per day: 13.41648826
mean anomaly at epoch: 332.6005°
orbit number at epoch: 0

The dashed part of the orbit path shows where the satellite is in the earth's shadow,  

DLR